Regional Weather Roundup
Issued by NWS Wakefield, VA

Home | Current Version | Previous Version | Text Only | Print | Product List | Glossary Off
Versions: 1 2 3 4 5 6 7 8 9 10 11 12 13 14 15 16 17 18 19 20 21 22 23 24 25 26 27 28 29 30 31 32 33 34 35 36 37 38 39 40 41 42 43 44 45 46 47 48 49 50

000
ASUS41 KAKQ 260415
RWRAKQ

REGIONAL WEATHER ROUNDUP
NATIONAL WEATHER SERVICE WAKEFIELD VA
1200 AM EDT TUE MAY 26 2015

Note: "fair" indicates few or no clouds below 12,000 feet with no
significant weather and/or obstructions to visibility. * = Denotes
station may not report precipitation (e.g., rain,snow,etc.),
thunder or fog.

VAZ042-051-052>054-056-260500-
NORTHERN VIRGINIA

CITY           SKY/WX    TMP DP  RH WIND       PRES   REMARKS
WASH NATIONAL  MOCLDY    73  62  68 S9        30.21F
DULLES         CLEAR     71  56  58 S7        30.20F
FORT BELVOIR   CLEAR     68  59  71 SE5       30.21F
QUANTICO       CLEAR     73  63  70 S9        30.22F
FREDERICKSBRG* CLEAR     69  60  74 S5        30.21S
STAFFORD*      CLEAR     64  57  79 S3        30.26S
WARRENTON      CLEAR     70  59  68 S6        30.21S
CULPEPER*      CLEAR     64  56  78 CALM      30.22S
MANASSAS*      CLEAR     70  57  64 S5        30.21S
LEESBURG*      CLEAR     72  61  68 S8        30.21S
WINCHESTER     CLEAR     72  50  46 S7        30.19F
FRONT ROYAL*   FAIR      70  55  60 S3        30.19S
LURAY*         FAIR      70  57  64 S5        30.21S
$$

VAZ048-049-060>072-079>083-260500-
CENTRAL AND SOUTH CENTRAL VIRGINIA

CITY           SKY/WX    TMP DP  RH WIND       PRES   REMARKS
RICHMOND       PTCLDY    70  59  68 S9        30.25F
CHESTERFIELD*  NOT AVBL
PETERSBURG*    CLEAR     66  58  74 S3        30.26F
HANOVER        CLEAR     70  57  63 S8        30.26S
TAPPAHANNOCK*  CLEAR     69  53  56 S6        30.25F
QUINTON*       FAIR      68  58  70 S3        30.26S
CHARLOTTSVILLE CLEAR     68  56  65 CALM      30.22F
GORDONSVILLE*  FAIR      59  57  92 CALM      30.22S
ORANGE*        CLEAR     61  57  88 CALM      30.24S
LOUISA*        CLEAR     70  57  64 S3        30.22S
BUMPASS*       FAIR      65  57  73 CALM      30.23S
FARMVILLE*     CLEAR     62  56  81 CALM      30.22F
CREWE*         FAIR      60  57  92 CALM      30.25S
FORT PICKETT*  NOT AVBL
CHASE CITY*    FAIR      69  61  74 S5        30.25F
CLARKSVILLE*   FAIR      68  57  68 S6        30.25S
SOUTH HILL*    CLEAR     67  58  74 S6        30.33S
LAWRENCEVILLE* FAIR      66  57  72 S3        30.27S
EMPORIA*       CLEAR     66  59  77 SE7       30.29F
$$

VAZ088>098-260500-
SOUTHEAST VIRGINIA

CITY           SKY/WX    TMP DP  RH WIND       PRES   REMARKS
NORFOLK        CLEAR     70  58  65 S10       30.29S
VIRGINIA BEACH CLEAR     70  60  70 S7        30.29S
NORFOLK NAVAL  CLEAR     75  59  57 S10G18    30.30S
WEST POINT*    CLEAR     73  57  56 S10       30.28S
SALUDA*        FAIR      70  58  67 S7G20     30.26F
NEWPORT NEWS   CLEAR     74  59  59 S14       30.28S
LANGLEY AFB    CLEAR     70  60  69 SW10      30.27F
FORT EUSTIS    CLEAR     70  59  68 S10       30.26F
WILLIAMSBURG*  CLEAR     73  63  68 S7        30.29S
HR EXEC AP*    FAIR      68  57  68 S7        30.31S
FRANKLIN*      CLEAR     66  60  80 S7        30.29S
WAKEFIELD      CLEAR     69  60  73 S8        30.28S
$$

VAZ020-022-025-037-045-260500-
WEST CENTRAL AND SOUTHWEST VIRGINIA

CITY           SKY/WX    TMP DP  RH WIND       PRES   REMARKS
STAUNTON*      CLEAR     63  56  77 CALM      30.25F
WAYNESBORO*    FAIR      64  55  73 CALM      30.25S
HOT SPRINGS VA CLEAR     62  53  72 S8        30.32F
LYNCHBURG      CLEAR     61  56  83 S3        30.26F
DANVILLE       CLEAR     66  57  72 S3        30.25F
SOUTH BOSTON*  FAIR      63  57  81 CALM      30.25S
MARTINSVILLE   CLEAR     59  59 100 CALM      30.27F
ROANOKE        CLEAR     70  56  61 SE3       30.26F
BLACKSBURG     PTCLDY    61  55  81 CALM      30.31F
DUBLIN*        MOCLDY    63  58  83 CALM      30.29S
MARION*        CLOUDY    68  56  67 N5        30.31S
HILLSVILLE*    MOCLDY    65  56  73 S6        30.31F
RICHLANDS*     FAIR      68  57  67 SE7       30.26S
WISE*          MOCLDY    70  55  60 S10       30.26S
ABINGDON*      CLOUDY    70  58  66 CALM      30.25S
$$

MDZ021>025-VAZ099-100-260500-
SOUTHERN MARYLAND AND THE DELMARVA PENINSULA

CITY           SKY/WX    TMP DP  RH WIND       PRES   REMARKS
PATUXENT RIVER CLEAR     69  60  73 MISG      30.24S
BAY BRIDGE APT   N/A    N/A N/A N/A S12G18    30.23S
LEONARDTOWN    CLEAR     68  59  73 S5        30.25S
DOVER          CLEAR     66  56  70 S9        30.21F
GEORGETOWN     CLEAR     66  57  72 S10       30.27S
EASTON         CLEAR     70  62  76 S9        30.28S
CAMBRIDGE      CLEAR     72  63  73 S6        30.24F
SALISBURY      CLEAR     65  58  78 S8        30.26F
OCEAN CITY     CLEAR     66  60  81 SW12      30.28F
WALLOPS ISLAND CLEAR     65  62  90 S14       30.29S
ACCOMACK*      CLEAR     68  63  83 S9        30.28F
$$

NCZ012>017-030>032-260500-
NORTH CENTRAL AND EASTERN NORTH CAROLINA

CITY           SKY/WX    TMP DP  RH WIND       PRES   REMARKS
ROANOKE RAPIDS FAIR      68  59  73 S5        30.28F
RALEIGH        PTCLDY    71  60  68 S8        30.28S
ELIZABETH CITY CLEAR     69  62  78 S8        30.31S
AHOSKIE*       CLEAR     64  59  83 S5        30.30S
EDENTON*       CLEAR     69  63  80 S8        30.31S
CURRITUCK*     CLEAR     69  60  73 S3        30.32S
KILL DEVIL HLS PTCLDY    71  63  73 S6        30.31S
MANTEO         PTCLDY    73  64  75 SW15      30.32S
CAPE HATTERAS  CLEAR     72  62  71 S13       30.33S
TARBORO*       FAIR      69  60  73 S5        30.30S
GOLDSBORO      NOT AVBL
WASHINGTON     CLEAR     68  62  79 S7        30.32S
GREENVILLE     CLEAR     70  63  78 S8        30.31S
NEW BERN       CLEAR     64  59  83 S3        30.32F
WILMINGTON     CLEAR     66  63  90 CALM      30.30F
$$

VAZ048-260500-
ELSEWHERE

CITY           SKY/WX    TMP DP  RH WIND       PRES   REMARKS
HARRISBURG PA  CLEAR     72  60  66 S10       30.18S
BALTIMORE      CLEAR     68  60  75 VRB3      30.21F
ANNAPOLIS      CLEAR     68  61  78 S10       30.21F
ANDREWS AFB    CLEAR     66  61  83 S8        30.21F
PHILADELPHIA   PTCLDY    71  55  56 S8        30.23S
HENDERSON NC   CLEAR     67  56  67 S6        30.27S
GREENSBORO     PTCLDY    70  59  68 S8        30.26S
ROCKY MOUNT    CLEAR     69  61  75 S6        30.30S
$$

VAZ100-260500-
MARINE

STATION/POSITION TIME  TEMP    WIND        PRES    WAVE   SWELL
                       AIR SEA DIR/SP/G            HT/PER HT/PER
                 (UTC) (F)     (DEG/KT/KT) (MB)    (FT/S) (FT/S)
BRANDYWINE LGT   0300   67 65  210/ 17/ 19 1024.6S
CAPE MAY NJ      0300   65 68  180/ 10/ 13 1024.5S
LEWES DE         0300   69 64  200/  7/ 10 1024.7S
15NM E FENWICK I 0350   63 61              1025.2S   3/ 4
OCEAN-CITY-INLET 0300   64 67  230/  9/ 12 1025.3R
WACHAPREAGUE VA  0300   70 73  210/ 11/ 16 1025.5S
THOMAS POINT MD  0400   68 67  170/ 18/ 19 1023.7F
GOOSES REEF MD   0400   69 67  190/ 14/ 16 1024.5F   2/ 3
SOLOMONS ISLAND  0300      70                N/A
BISHOPS HEAD MD  0300   71 70  180/ 17/ 20 1024.1S
PINEY POINT MD   0300          190/ 10/ 12   N/A
CAMBRIDGE MD     0300   70 71  180/  6/ 10 1024.2R
LEWISETTA VA     0300   70 71              1024.2R
RAPPAHANNOCK LGT 0300          170/ 16/ 17 1025.7R
STINGRAY PT      0400   72 70  190/ 16/ 19 1024.3F   2/ 3
YORK RVR RNG VA  0300   73     200/ 17/ 20 1024.6R
YORKTOWN VA      0300   73 71  190/ 10/ 15 1025.0R
JAMESTOWN VA     0400   70 74  190/ 12/ 14 1024.2F
DOMINION TERM VA 0300   72     180/ 13/ 15 1025.7R
KIPTOPEKE VA     0300      74  180/ 13/ 15   N/A
CHES BAY BRIDGE  0300   71 70  170/ 13/ 17 1025.2R
CAPE HENRY VA    0300   70     170/  8/ 12 1024.5R
CHESAPEAKE LGHT  0300   68     180/ 20/ 21 1026.1R
WILLOUBY STN VA  0300   72     180/ 19/ 22 1026.1R
CAPE HENRY BUOY  0328      66                N/A     2/ 4
1ST LANDING BUOY 0400      69              1025.5R
CAPE CHARLES BUO 0326      69                N/A     2/ 4   2/ 7
OFFSHORE WE BUOY 0311      67                N/A     2/ 3   2/ 8
64NM E OF VA BCH 0350   66 64  190/  8/  8 1026.4S   1/ 7   2/ 7
DUCK PIER NC     0300   72 63  180/ 11/ 15 1025.4F
44100 DUCK FRF   0324      63                N/A     2/ 8
44056 DUCK FRF   0311      65                N/A     1/ 8
OREGON INLET NC  0300   73 77  180/ 14/ 16 1026.9S
HATTERAS NC      0300   74 76  160/  8/ 12 1026.6F
DIAMOND SHLS NC  0350   74 76  170/ 14/ 16 1027.0F   3/ 6   2/ 8
CAPE LOOKOUT NC  0400   74     150/ 10/ 11 1026.5F
$$



USA.gov is the U.S. government's official web portal to all federal, state and local government web resources and services.